This demonstration page uses our WeatherBlox Daily Observations layout. Learn more.

Left ArrowRight Arrow

39.08367, -84.50855

Hourly Observations for June 29, 2020

Temp ( °F °C ) Dew Point ( °F °C ) Humidity (%) Winds ( mph kmh ) Pressure ( in mb ) Visibility ( mi km ) Precip ( " mm )
12:53 am 00:53 Mostly Clear with Mist and Fog 71 21.7 70 21.1 96 96 Calm 29.9 1013 2.5 4.02335 0 0
1:05 am 01:05 Mostly Clear with Mist and Fog 71 21.7 70 21.1 96 96 Calm 29.9 1012 4 6.43736 0 0
1:31 am 01:31 Mostly Cloudy with Fog 70 21.1 69 20.6 97 97 Calm 29.91 1013 0.5 0.80467 0 0
1:40 am 01:40 Mostly Clear with Mist and Fog 70 21.1 69 20.6 97 97 SSW 3 6 29.91 1013 1.5 2.41401 0 0
1:42 am 01:42 Mostly Clear with Mist and Fog 70 21.1 69 20.6 97 97 SW 3 6 29.91 1013 4 6.43736 0 0
1:49 am 01:49 Mostly Clear with Mist and Fog 70 21 70 21 100 100 SW 3 6 29.91 1013 1.5 2.41401 0 0
1:53 am 01:53 Mostly Cloudy with Mist and Fog 70 21.1 69 20.6 97 97 Calm 29.9 1013 1 1.60934 0 0
2:04 am 02:04 Clear with Mist and Fog 71 21.7 70 21.1 96 96 Calm 29.9 1012 0.75 1.207005 0 0
2:11 am 02:11 Mostly Cloudy with Mist and Fog 69 20.6 68 20 96 96 NE 3 6 29.9 1012 0.75 1.207005 0 0
2:14 am 02:14 Mostly Clear with Mist and Fog 69 20.6 68 20 96 96 NE 5 7 29.9 1012 1.25 2.011675 0 0
2:22 am 02:22 Clear with Mist and Fog 69 20.6 68 20 96 96 ENE 3 6 29.9 1012 2.5 4.02335 0 0
2:29 am 02:29 Clear with Mist and Fog 70 21.1 69 20.6 97 97 Calm 29.9 1012 5 8.0467 0 0
2:49 am 02:49 Clear with Mist and Fog 70 21 68 20 94 94 SW 3 6 29.89 1012 1.5 2.41401 0 0
2:53 am 02:53 Mostly Cloudy with Fog 68 20 68 20 100 100 WSW 5 7 29.9 1012 0.5 0.80467 0 0
3:06 am 03:06 Partly Cloudy with Mist and Fog 68 20 67 19.4 96 96 S 5 7 29.89 1012 2.5 4.02335 0 0
3:10 am 03:10 Mostly Cloudy with Mist and Fog 69 20.6 68 20 96 96 S 5 7 29.89 1012 1.75 2.816345 0 0
3:24 am 03:24 Mostly Cloudy with Fog 69 20.6 69 20.6 100 100 Calm 29.89 1012 0.5 0.80467 0 0
3:32 am 03:32 Mostly Cloudy with Fog 70 21.1 69 20.6 97 97 Calm 29.89 1012 0.25 0.402335 0 0
3:53 am 03:53 Mostly Cloudy with Fog 70 21.1 69 20.6 97 97 Calm 29.88 1012 0.25 0.402335 0 0
4:53 am 04:53 Mostly Cloudy with Fog 69 20.6 68 20 96 96 Calm 29.9 1013 0.25 0.402335 0 0
5:14 am 05:14 Mostly Cloudy with Fog 70 21.1 69 20.6 97 97 Calm 29.91 1013 0.25 0.402335 0 0
5:49 am 05:49 Cloudy with Fog 70 21 70 21 100 100 Calm 29.92 1013 0.5 0.80467 0 0
5:53 am 05:53 Mostly Cloudy with Fog 70 21.1 70 21.1 100 100 Calm 29.92 1013 0.5 0.80467 0 0
5:57 am 05:57 Cloudy with Mist and Fog 70 21.1 70 21.1 100 100 Calm 29.92 1013 1 1.60934 0 0
6:05 am 06:05 Cloudy with Mist and Fog 71 21.7 70 21.1 96 96 Calm 29.92 1013 3 4.82802 0 0
6:32 am 06:32 Cloudy with Mist and Fog 71 21.7 70 21.1 96 96 Calm 29.94 1014 1.75 2.816345 0 0
6:50 am 06:50 Cloudy with Mist and Fog 72 22 70 21 94 94 Calm 29.94 1014 0.75 1.207005 0 0
6:53 am 06:53 Cloudy with Mist and Fog 71 21.7 70 21.1 96 96 Calm 29.94 1014 0.75 1.207005 0 0
7:53 am 07:53 Cloudy with Mist and Fog 72 22.2 71 21.7 97 97 NE 3 6 29.96 1014 0.75 1.207005 0 0
8:09 am 08:09 Cloudy with Mist and Fog 72 22.2 71 21.7 97 97 Calm 29.96 1015 1 1.60934 0 0
8:19 am 08:19 Cloudy with Mist and Fog 72 22.2 71 21.7 97 97 Calm 29.96 1015 1 1.60934 0 0
8:53 am 08:53 Cloudy with Mist and Fog 73 22.8 72 22.2 96 96 Calm 29.97 1015 0.75 1.207005 0 0
9:32 am 09:32 Cloudy with Mist and Fog 75 23.9 72 22.2 90 90 Calm 29.96 1015 3 4.82802 0 0
9:49 am 09:49 Cloudy with Mist and Fog 75 24 73 23 94 94 SW 3 6 29.97 1015 2 3.21868 0 0
9:53 am 09:53 Cloudy with Mist and Fog 75 23.9 73 22.8 94 94 SSW 3 6 29.97 1015 3 4.82802 0 0
10:53 am 10:53 Mostly Cloudy 80 26.7 73 22.8 79 79 ESE 5 7 29.97 1015 9 14.48406 0 0
11:53 am 11:53 Partly Cloudy 82 27.8 73 22.8 74 74 S 5 7 29.97 1015 10 16.0934 0 0
12:53 pm 12:53 Mostly Cloudy 83 28.3 72 22.2 70 70 SSW 6 9 29.97 1015 10 16.0934 0 0
1:53 pm 13:53 Mostly Cloudy 84 28.9 74 23.3 72 72 SSE 6 9 29.96 1014 9 14.48406 0 0
2:53 pm 14:53 Mostly Cloudy 85 29.4 73 22.8 68 68 VRB 5 7 29.94 1014 10 16.0934 0.001 0.001
3:53 pm 15:53 Partly Cloudy 88 31.1 73 22.8 61 61 Calm 29.92 1013 10 16.0934 0 0
4:53 pm 16:53 Sunny 86 30 73 22.8 65 65 S 3 6 29.91 1013 10 16.0934 0 0
5:53 pm 17:53 Sunny 85 29.4 74 23.3 70 70 S 5 7 29.9 1013 10 16.0934 0 0
6:53 pm 18:53 Mostly Sunny 86 30 73 22.8 65 65 S 3 6 29.9 1012 10 16.0934 0 0
7:53 pm 19:53 Mostly Sunny 83 28.3 76 24.4 79 79 SSW 5 7 29.91 1013 9 14.48406 0 0
8:53 pm 20:53 Sunny 81 27.2 75 23.9 82 82 Calm 29.92 1013 8 12.87472 0 0
9:53 pm 21:53 Clear with Mist and Fog 75 23.9 73 22.8 94 94 Calm 29.91 1013 6 9.65604 0 0
10:53 pm 22:53 Clear with Mist and Fog 75 23.9 73 22.8 94 94 Calm 29.93 1014 6 9.65604 0 0
11:53 pm 23:53 Partly Cloudy 78 25.6 74 23.3 87 87 NE 6 9 29.94 1014 7 11.26538 0 0

Powered by AerisWeather